TimeEST,TemperatureF,Dew PointF,Humidity,Sea Level PressureIn,VisibilityMPH,Wind Direction,Wind SpeedMPH,Gust SpeedMPH,PrecipitationIn,Events,Conditions,WindDirDegrees,DateUTC
12:53 AM,33.1,27.0,78,30.06,10.0,SW,17.3,-,N/A,,Clear,220,2011-12-25 05:53:00
1:53 AM,33.1,28.0,82,30.03,10.0,SW,16.1,-,N/A,,Clear,220,2011-12-25 06:53:00
2:53 AM,33.1,28.9,85,30.02,10.0,SW,13.8,-,N/A,,Clear,220,2011-12-25 07:53:00
3:53 AM,33.1,28.9,85,30.00,10.0,SW,15.0,-,N/A,,Clear,230,2011-12-25 08:53:00
4:53 AM,32.0,28.9,88,29.98,9.0,SSW,9.2,-,N/A,,Clear,210,2011-12-25 09:53:00
5:53 AM,33.1,28.9,85,29.95,9.0,SSW,11.5,-,N/A,,Clear,200,2011-12-25 10:53:00
6:53 AM,33.1,28.9,85,29.94,9.0,SSW,13.8,-,N/A,,Clear,200,2011-12-25 11:53:00
7:53 AM,33.1,28.9,85,29.94,10.0,SSW,12.7,-,N/A,,Clear,210,2011-12-25 12:53:00
8:53 AM,33.1,28.9,85,29.91,9.0,SSW,9.2,-,N/A,,Clear,210,2011-12-25 13:53:00
9:53 AM,36.0,30.9,82,29.91,10.0,SW,11.5,-,N/A,,Clear,220,2011-12-25 14:53:00
10:53 AM,37.9,33.1,83,29.91,10.0,WSW,12.7,-,N/A,,Scattered Clouds,240,2011-12-25 15:53:00
11:53 AM,42.8,30.2,61,29.87,10.0,West,20.7,28.8,N/A,,Mostly Cloudy,260,2011-12-25 16:53:00
12:53 PM,42.1,28.9,60,29.88,10.0,West,17.3,-,N/A,,Overcast,260,2011-12-25 17:53:00
1:53 PM,39.2,26.6,61,29.90,10.0,West,18.4,27.6,N/A,,Overcast,280,2011-12-25 18:53:00
2:53 PM,39.0,28.0,65,29.95,10.0,WNW,17.3,24.2,N/A,,Overcast,290,2011-12-25 19:53:00
3:28 PM,37.4,28.4,70,29.95,10.0,WNW,18.4,25.3,N/A,,Overcast,290,2011-12-25 20:28:00
3:53 PM,37.9,28.0,68,29.99,10.0,West,13.8,25.3,N/A,,Overcast,280,2011-12-25 20:53:00
4:38 PM,37.4,28.4,70,30.00,10.0,West,12.7,-,N/A,,Overcast,280,2011-12-25 21:38:00
4:53 PM,37.9,28.0,68,30.03,10.0,West,15.0,20.7,N/A,,Overcast,280,2011-12-25 21:53:00
5:43 PM,37.4,28.4,70,30.05,10.0,West,13.8,-,N/A,,Overcast,280,2011-12-25 22:43:00
5:53 PM,37.4,28.4,70,30.06,10.0,WNW,17.3,-,N/A,,Overcast,290,2011-12-25 22:53:00
6:53 PM,37.0,28.9,73,30.12,10.0,West,12.7,-,N/A,,Overcast,280,2011-12-25 23:53:00
7:53 PM,37.0,30.0,76,30.15,10.0,WNW,11.5,-,N/A,,Overcast,300,2011-12-26 00:53:00
8:53 PM,37.4,28.4,70,30.15,10.0,NW,13.8,-,N/A,,Overcast,310,2011-12-26 01:53:00
9:53 PM,36.0,28.9,76,30.19,10.0,West,9.2,-,N/A,,Overcast,280,2011-12-26 02:53:00
10:48 PM,35.6,30.2,81,30.18,10.0,West,8.1,-,N/A,,Overcast,280,2011-12-26 03:48:00
10:53 PM,36.0,30.0,79,30.21,10.0,West,8.1,-,N/A,,Overcast,280,2011-12-26 03:53:00
11:30 PM,35.6,30.2,81,30.19,10.0,WNW,6.9,-,N/A,,Overcast,300,2011-12-26 04:30:00
11:53 PM,35.6,30.2,81,30.20,10.0,WNW,8.1,-,N/A,,Overcast,290,2011-12-26 04:53:00